Location: Unspecified
(0.0000°N, 0.0000°E)
Time: 21:30:01
(UTC+00:00)

METEOR M2 - Visible Passes

Search period start: 26 May 2024 00:00
Search period end: 05 June 2024 00:00
Orbit: 817 x 827 km, 98.4° (Epoch: 26 May)

Date Brightness Start Highest point End Pass type
(mag) Time Alt. Az. Time Alt. Az. Time Alt. Az.
26 May ? 03:59:08 10° ENE 04:01:21 13° ESE 04:03:34 10° SE visible
26 May ? 18:18:32 10° SW 18:21:07 14° WSW 18:23:42 10° WNW visible
27 May ? 05:15:43 10° N 05:21:03 72° WNW 05:26:25 10° SSW visible
28 May ? 04:55:36 10° NNE 05:00:54 66° ESE 05:06:15 10° S visible
29 May ? 04:35:51 10° NE 04:40:46 38° ESE 04:45:43 10° S visible
30 May ? 04:16:34 10° NE 04:20:39 22° ESE 04:24:43 10° SSE visible
31 May ? 03:58:20 10° ENE 04:00:32 13° ESE 04:02:44 10° SE visible
31 May ? 18:17:43 10° SW 18:20:18 14° WSW 18:22:53 10° WNW visible
01 Jun ? 05:14:54 10° N 05:20:14 73° WNW 05:25:36 10° SSW visible
02 Jun ? 04:54:47 10° NNE 05:00:05 66° ESE 05:05:26 10° S visible
03 Jun ? 04:35:01 10° NE 04:39:57 38° ESE 04:44:54 10° S visible
04 Jun ? 04:15:45 10° NE 04:19:50 22° ESE 04:23:54 10° SSE visible
